Location: Caltech
(34.1382°N, 118.1253°W)
Time: 04:02:53
(UTC-07:00)

NOAA 19 - Visible Passes

Search period start: 28 March 2015 00:00
Search period end: 07 April 2015 00:00
Orbit: 842 x 863 km, 99.0° (Epoch: 27 March)

Date Brightness Start Highest point End Pass type
(mag) Time Alt. Az. Time Alt. Az. Time Alt. Az.
28 Mar 7.9 02:44:30 10° NNE 02:45:16 14° NNE 02:45:16 14° NNE visible
28 Mar 7.2 04:25:59 10° NNW 04:27:19 15° NNW 04:27:19 15° NNW visible
29 Mar 8.0 02:33:32 10° NE 02:34:03 12° NE 02:34:03 12° NE visible
29 Mar 7.1 04:14:26 10° NNW 04:16:06 18° NNW 04:16:06 18° NNW visible
30 Mar 8.1 02:22:40 10° NE 02:22:50 11° NE 02:22:50 11° NE visible
30 Mar 7.0 04:02:59 10° N 04:04:54 20° NNW 04:04:54 20° NNW visible
31 Mar 7.0 03:51:34 10° N 03:53:40 23° NNW 03:53:40 23° NNW visible
01 Apr 6.9 03:40:15 10° N 03:42:28 25° N 03:42:28 25° N visible
02 Apr 7.0 03:28:58 10° N 03:31:15 26° N 03:31:15 26° N visible
03 Apr 7.0 03:17:45 10° NNE 03:20:02 26° NNE 03:20:02 26° NNE visible
04 Apr 7.1 03:06:35 10° NNE 03:08:49 25° NNE 03:08:49 25° NNE visible
04 Apr 7.2 04:49:30 10° NNW 04:50:52 13° NW 04:50:52 13° NW visible
05 Apr 7.2 02:55:28 10° NNE 02:57:36 23° NNE 02:57:36 23° NNE visible
05 Apr 7.1 04:37:34 10° NNW 04:39:39 16° NW 04:39:39 16° NW visible
06 Apr 7.4 02:44:25 10° NNE 02:46:23 21° NE 02:46:23 21° NE visible
06 Apr 6.9 04:25:53 10° NNW 04:28:26 20° NW 04:28:26 20° NW visible
